DECAYED
Showing default

NUSAT-6 HYPATIA, 46272 (Decayed)

Orbit data source: Space-Track

NUSAT-6 HYPATIA, 46272 was a payload satellite owned by URUGUS S.A. (AR) in LEO that was launched on Thu, 03 Sep 2020 UTC via a VEGA launch vehicle from the French Guiana (FRGUI). Payload-class satellites include a variety of spacecraft equipped with specific instruments for various scientific and technological missions. These include communications satellites like Starlink; space stations such as the ISS; scientific satellites like the Hubble; Earth observation satellites from companies like Planet Labs, Umbra, and HawkEye 360; GPS; miniature CubeSats for education and research; and military/defense satellites.

Not visible in the next 10 days
Identifier
46272, 2020-061A
Orbit
Decayed
Last TLE update
10 months ago
Origin
Manufacturer
URUGUS S.A.
Mission
Decayed Commercial Imaging
Bus & Motor
ALEPH, Unknown motor
Mass
44 kg wet, 37 kg dry
Launch date (UTC)
2020-09-03 (5 years ago)
Launch vehicle
VEGA
Launch site
French Guiana (FRGUI)
Object type
Payload
Rocket body
Debris
Shape & HBR
Box, 0.75 m
Radar Cross Section
0.380 m², Medium (>0.1 m² and < 1m²)

Expand to show TLE details & history

TLE from 10 months ago
0 NUSAT-6 HYPATIA
1 46272U 20061A   24258.01176362  .15675468  25096-5  15830-3 0  9996
2 46272  97.2016 336.5654 0010782 254.7991 105.2123 16.50620335225504
Epoch: 2024-09-14T00:16Z
TLE epoch observation values (Epoch: 2024-09-14T00:16:56.376Z)
Latitude
-0°
Longitude
-21.1451°
Altitude
142.825 km
Speed
7.819 km/s
True Right ascension
22h 26m 15s
True Declination
0° 00' 00"
Sunlit
Object was in full shadow at epoch
Visualization orbit readout
Visualization observer readout
Orbital elements
Apogee altitude
141.509 km
Perigee altitude
127.466 km
Semi-major axis
6,512.624 km
Eccentricity
0.00108
Inclination
97.2016°
RAAN
336.5654°
Arg. of periapsis
254.7991°
True anomaly
Unknown
Mean anomaly
105.2123°
Eccentric anomaly
Unknown
Mean motion
4.12961 °/min
Orbital period
87.18 mins
BSTAR
0.0001583
Loading maneuver chart data...
Loading SW <> Apogee altitude chart data...

NUSAT-6 HYPATIA Visibility

Observer location: undefined°, undefined°

This satellite is decayed
Span
Click to sort rows by Start time (UTC) header in descending order
Start Az.
Max El. time (UTC)
Max El. Az.
Max El.
End time (UTC)
End Az.
|